| time (UTC) | temp F | wind direction | speed MPH | gust MPH | rain 1hr in | rain 24hr in | rain mn in | humidity % | barometer mb |
| 20260906034544 | 72 | 232 | 1.0 | 4.0 | 0.00 | 0.04 | 0.04 | 92 | 1014.3 |
| 20260906033050 | 72 | 0 | 1.0 | 4.0 | 0.00 | 0.04 | 0.04 | 92 | 1014.4 |
| 20260906031546 | 72 | 0 | 0.0 | 3.0 | 0.00 | 0.04 | 0.04 | 91 | 1014.4 |
| 20260906030046 | 72 | 257 | 2.0 | 4.0 | 0.00 | 0.04 | 0.04 | 92 | 1014.3 |
| 20260906024558 | 72 | 231 | 2.0 | 4.0 | 0.00 | 0.04 | 0.04 | 91 | 1014.1 |
| 20260906023048 | 73 | 0 | 0.0 | 2.0 | 0.00 | 0.04 | 0.04 | 91 | 1013.9 |
| 20260906021547 | 73 | 0 | 1.0 | 3.0 | 0.00 | 0.04 | 0.04 | 90 | 1014.0 |
| 20260906020046 | 73 | 239 | 0.0 | 2.0 | 0.00 | 0.04 | 0.04 | 89 | 1014.0 |
| 20260906014632 | 74 | 239 | 0.0 | 2.0 | 0.00 | 0.04 | 0.04 | 89 | 1014.0 |
| 20260906013054 | 74 | 0 | 0.0 | 2.0 | 0.00 | 0.04 | 0.04 | 88 | 1013.7 |
| 20260906011546 | 75 | 0 | 0.0 | 2.0 | 0.00 | 0.04 | 0.04 | 86 | 1013.8 |
| 20260906010049 | 76 | 0 | 0.0 | 1.0 | 0.00 | 0.04 | 0.04 | 85 | 1013.5 |
| 20260906004547 | 76 | 0 | 0.0 | 1.0 | 0.00 | 0.04 | 0.04 | 83 | 1013.3 |
| 20260906003045 | 77 | 239 | 0.0 | 4.0 | 0.00 | 0.04 | 0.04 | 83 | 1013.2 |
| 20260906001545 | 78 | 247 | 1.0 | 3.0 | 0.00 | 0.04 | 0.04 | 81 | 1013.0 |
| 20260906000042 | 79 | 0 | 0.0 | 2.0 | 0.00 | 0.04 | 0.04 | 80 | 1013.0 |
| 20260905234540 | 80 | 40 | 0.0 | 3.0 | 0.00 | 0.04 | 0.04 | 78 | 1012.7 |
| 20260905233048 | 81 | 0 | 0.0 | 2.0 | 0.00 | 0.04 | 0.04 | 79 | 1012.8 |
| 20260905231545 | 82 | 40 | 0.0 | 2.0 | 0.00 | 0.04 | 0.04 | 74 | 1012.7 |
| 20260905230039 | 83 | 0 | 0.0 | 1.0 | 0.00 | 0.04 | 0.04 | 73 | 1012.6 |
| 20260905224548 | 84 | 0 | 0.0 | 5.0 | 0.00 | 0.04 | 0.04 | 71 | 1012.6 |
| 20260905223045 | 86 | 0 | 0.0 | 3.0 | 0.00 | 0.04 | 0.04 | 69 | 1012.4 |
| 20260905221604 | 87 | 5 | 1.0 | 3.0 | 0.00 | 0.04 | 0.04 | 66 | 1012.6 |
| 20260905220048 | 87 | 5 | 0.0 | 2.0 | 0.00 | 0.04 | 0.04 | 68 | 1012.6 |
| 20260905214545 | 86 | 5 | 1.0 | 3.0 | 0.00 | 0.04 | 0.04 | 69 | 1013.0 |
| 20260905213056 | 84 | 5 | 1.0 | 5.0 | 0.00 | 0.04 | 0.04 | 72 | 1013.2 |
| 20260905211549 | 84 | 0 | 1.0 | 3.0 | 0.00 | 0.04 | 0.04 | 73 | 1013.0 |
| 20260905210052 | 81 | 0 | 0.0 | 3.0 | 0.00 | 0.04 | 0.04 | 77 | 1012.9 |
| 20260905204547 | 78 | 204 | 2.0 | 4.0 | 0.00 | 0.04 | 0.04 | 82 | 1013.2 |
| 20260905203043 | 75 | 234 | 2.0 | 4.0 | 0.00 | 0.04 | 0.04 | 87 | 1013.7 |
| 20260905201604 | 74 | 0 | 0.0 | 4.0 | 0.00 | 0.04 | 0.04 | 88 | 1013.7 |
| 20260905200048 | 73 | 222 | 0.0 | 3.0 | 0.00 | 0.04 | 0.04 | 89 | 1013.7 |
| 20260905194545 | 72 | 0 | 0.0 | 3.0 | 0.00 | 0.04 | 0.04 | 90 | 1014.0 |
| 20260905193101 | 72 | 222 | 5.0 | 11.0 | 0.00 | 0.04 | 0.04 | 89 | 1013.8 |
| 20260905191547 | 72 | 214 | 3.0 | 6.0 | 0.00 | 0.04 | 0.04 | 89 | 1013.9 |
| 20260905190046 | 73 | 20 | 2.0 | 7.0 | 0.00 | 0.04 | 0.04 | 87 | 1014.0 |
| 20260905184553 | 73 | 221 | 2.0 | 8.0 | 0.04 | 0.04 | 0.04 | 84 | 1013.2 |
| 20260905183048 | 73 | 273 | 4.0 | 9.0 | 0.04 | 0.04 | 0.04 | 83 | 1013.7 |
| 20260905181604 | 75 | 224 | 3.0 | 10.0 | 0.04 | 0.04 | 0.04 | 80 | 1013.5 |
| 20260905180044 | 81 | 213 | 5.0 | 19.0 | 0.03 | 0.03 | 0.03 | 70 | 1014.7 |
| 20260905174558 | 91 | 11 | 6.0 | 13.0 | 0.00 | 0.00 | 0.00 | 59 | 1014.5 |
| 20260905173051 | 94 | 0 | 3.0 | 12.0 | 0.00 | 0.00 | 0.00 | 54 | 1014.7 |
| 20260905171546 | 94 | 351 | 2.0 | 9.0 | 0.00 | 0.00 | 0.00 | 52 | 1014.7 |
| 20260905170046 | 94 | 15 | 4.0 | 8.0 | 0.00 | 0.00 | 0.00 | 55 | 1014.8 |
| 20260905164540 | 94 | 27 | 3.0 | 8.0 | 0.00 | 0.00 | 0.00 | 55 | 1014.9 |
| 20260905163049 | 95 | 242 | 1.0 | 8.0 | 0.00 | 0.00 | 0.00 | 55 | 1015.1 |
| 20260905161559 | 96 | 313 | 0.0 | 5.0 | 0.00 | 0.00 | 0.00 | 56 | 1015.4 |
| 20260905160045 | 94 | 32 | 2.0 | 4.0 | 0.00 | 0.00 | 0.00 | 58 | 1015.5 |
| 20260905154555 | 92 | 288 | 1.0 | 9.0 | 0.00 | 0.00 | 0.00 | 58 | 1015.5 |
| 20260905153052 | 93 | 219 | 1.0 | 4.0 | 0.00 | 0.00 | 0.00 | 58 | 1015.4 |
| 20260905151559 | 92 | 161 | 2.0 | 5.0 | 0.00 | 0.00 | 0.00 | 56 | 1015.4 |
| 20260905150044 | 90 | 9 | 2.0 | 4.0 | 0.00 | 0.00 | 0.00 | 62 | 1015.3 |
| 20260905144550 | 90 | 202 | 3.0 | 4.0 | 0.00 | 0.00 | 0.00 | 63 | 1015.4 |
| 20260905143048 | 88 | 194 | 2.0 | 5.0 | 0.00 | 0.00 | 0.00 | 70 | 1015.4 |
| 20260905141546 | 86 | 206 | 5.0 | 8.0 | 0.00 | 0.00 | 0.00 | 71 | 1015.4 |
| 20260905140045 | 86 | 215 | 2.0 | 4.0 | 0.00 | 0.00 | 0.00 | 74 | 1015.4 |
| 20260905134553 | 84 | 292 | 1.0 | 4.0 | 0.00 | 0.00 | 0.00 | 78 | 1015.6 |
| 20260905133047 | 82 | 269 | 0.0 | 3.0 | 0.00 | 0.00 | 0.00 | 82 | 1015.5 |
| 20260905131547 | 80 | 211 | 0.0 | 3.0 | 0.00 | 0.00 | 0.00 | 86 | 1015.7 |
| 20260905130046 | 78 | 207 | 2.0 | 4.0 | 0.00 | 0.00 | 0.00 | 89 | 1015.6 |
| 20260905124547 | 77 | 0 | 1.0 | 4.0 | 0.00 | 0.00 | 0.00 | 94 | 1015.6 |
| 20260905123052 | 75 | 0 | 0.0 | 2.0 | 0.00 | 0.00 | 0.00 | 96 | 1015.6 |
| 20260905121545 | 74 | 235 | 0.0 | 2.0 | 0.00 | 0.00 | 0.00 | 97 | 1015.5 |
| 20260905120045 | 73 | 0 | 0.0 | 3.0 | 0.00 | 0.00 | 0.00 | 97 | 1015.4 |
| 20260905114540 | 73 | 0 | 0.0 | 2.0 | 0.00 | 0.00 | 0.00 | 97 | 1015.4 |
| 20260905113050 | 72 | 0 | 0.0 | 2.0 | 0.00 | 0.00 | 0.00 | 97 | 1015.1 |
| 20260905111601 | 72 | 0 | 1.0 | 3.0 | 0.00 | 0.00 | 0.00 | 96 | 1014.9 |
| 20260905110049 | 72 | 235 | 0.0 | 2.0 | 0.00 | 0.00 | 0.00 | 96 | 1014.6 |
| 20260905104559 | 72 | 0 | 0.0 | 3.0 | 0.00 | 0.00 | 0.00 | 96 | 1014.6 |
| 20260905103039 | 72 | 226 | 0.0 | 3.0 | 0.00 | 0.00 | 0.00 | 96 | 1014.6 |
| 20260905101551 | 72 | 226 | 0.0 | 2.0 | 0.00 | 0.00 | 0.00 | 96 | 1014.5 |
| 20260905100047 | 72 | 0 | 0.0 | 1.0 | 0.00 | 0.00 | 0.00 | 96 | 1014.5 |
| 20260905094544 | 72 | 226 | 1.0 | 4.0 | 0.00 | 0.00 | 0.00 | 96 | 1014.4 |
| 20260905093052 | 72 | 226 | 2.0 | 5.0 | 0.00 | 0.00 | 0.00 | 96 | 1014.4 |
| 20260905091605 | 72 | 226 | 2.0 | 4.0 | 0.00 | 0.00 | 0.00 | 95 | 1014.3 |
| 20260905090048 | 72 | 228 | 2.0 | 5.0 | 0.00 | 0.00 | 0.00 | 95 | 1014.3 |
| 20260905084606 | 73 | 0 | 0.0 | 1.0 | 0.00 | 0.00 | 0.00 | 94 | 1014.4 |
| 20260905083040 | 73 | 0 | 0.0 | 3.0 | 0.00 | 0.00 | 0.00 | 94 | 1014.5 |
| 20260905081548 | 73 | 0 | 0.0 | 2.0 | 0.00 | 0.00 | 0.00 | 94 | 1014.6 |
| 20260905080048 | 73 | 249 | 0.0 | 2.0 | 0.00 | 0.00 | 0.00 | 94 | 1014.8 |
| 20260905074551 | 73 | 244 | 0.0 | 3.0 | 0.00 | 0.00 | 0.00 | 94 | 1015.0 |
| 20260905073040 | 73 | 0 | 0.0 | 2.0 | 0.00 | 0.00 | 0.00 | 94 | 1015.1 |
| 20260905071548 | 73 | 0 | 0.0 | 1.0 | 0.00 | 0.00 | 0.00 | 94 | 1015.2 |
| 20260905070106 | 74 | 0 | 0.0 | 0.0 | 0.00 | 0.00 | 0.00 | 93 | 1015.4 |
| 20260905064548 | 74 | 0 | 0.0 | 0.0 | 0.00 | 0.00 | 0.00 | 93 | 1015.4 |
| 20260905063042 | 74 | 0 | 0.0 | 0.0 | 0.00 | 0.00 | 0.00 | 93 | 1015.7 |
| 20260905061604 | 74 | 0 | 0.0 | 1.0 | 0.00 | 0.00 | 0.00 | 93 | 1015.7 |
| 20260905060044 | 75 | 0 | 0.0 | 2.0 | 0.00 | 0.00 | 0.00 | 93 | 1016.1 |
| 20260905054555 | 75 | 312 | 1.0 | 2.0 | 0.00 | 0.00 | 0.00 | 93 | 1016.3 |
| 20260905053048 | 75 | 0 | 0.0 | 1.0 | 0.00 | 0.00 | 0.00 | 93 | 1016.3 |
| 20260905051544 | 75 | 312 | 0.0 | 1.0 | 0.00 | 0.00 | 0.00 | 92 | 1016.6 |
| 20260905050051 | 76 | 312 | 0.0 | 1.0 | 0.00 | 0.00 | 0.00 | 91 | 1016.5 |
| 20260905044548 | 76 | 0 | 0.0 | 2.0 | 0.00 | 0.00 | 0.00 | 91 | 1016.5 |
| 20260905043046 | 76 | 0 | 0.0 | 2.0 | 0.00 | 0.00 | 0.00 | 91 | 1016.3 |
| 20260905041549 | 77 | 311 | 0.0 | 1.0 | 0.00 | 0.00 | 0.00 | 90 | 1016.3 |